Norfolk International Airport Airport (ORF)

 

Airport Diagram
Current Weather/Forecast (VFR Conditions)
METAR KORF 281751Z 24012G18KT 10SM CLR 11/M07 A2995 RMK AO2 SLP140 T01061072 10111 20000 58033
TAF KORF 281724Z 2818/2918 24012G20KT P6SM FEW120 FM282000 23013G20KT P6SM SCT060 FM290000 26010KT P6SM VCSH BKN050 FM290400 27008KT P6SM BKN060 FM290900 28008KT P6SM SCT120 FM291500 29012G20KT P6SM SCT050

All Charts
General
Chart Name Download
AIRPORT DIAGRAM
TAKEOFF MINIMUMS
ALTERNATE MINIMUMS

Departures
Chart Name Download
KISRR THREE

Arrivals
Chart Name Download
DRONE TWO
DRONE TWO, CONT.1
TERKS TWO

Approaches
Chart Name Download
ILS OR LOC RWY 05
ILS OR LOC RWY 23
RNAV (RNP) Y RWY 05
RNAV (RNP) Y RWY 23
RNAV (GPS) RWY 14
RNAV (GPS) RWY 32
RNAV (GPS) Z RWY 05
RNAV (GPS) Z RWY 23
VOR/DME RWY 32
VOR RWY 14
RIVER VISUAL RWY 05


Inbound Traffic (Arrivals)

No inbound traffic.


Outbound Traffic (Departures)

No outbound traffic.